[[{"header":{"parameterUnit":"m.s-1","parameterCategory":2,"la1":30.2991,"la2":30.254,"lo1":-89.0895,"lo2":-89.0444,"dy":0.0017,"dx":0.0017,"nx":28,"ny":28,"refTime":"2024-07-20T03:00:00:Z","depth":"0","parameterNumber":2,"parameterNumberName":"U-component_of_CURRENTS"},"data":[0,0,0,0,0,0,0,0,0,0,0,0,0,0,0,0,0,0,0,0,0,0,0,0,0,0,0,0,0,0,0,0,0,0,0,0,0,0,0,0,0,0,0,0,0,0,0,0,0,0,0,0,0,0,0,0,0,0,-0.2036,-0.2036,0,-0.2064,-0.2064,-0.2064,-0.2033,-0.2032,-0.2031,-0.203,-0.2005,-0.2005,-0.2005,0,0,0,0,0,0,0,0,0,0,0,0,0,-0.1958,-0.1959,-0.2036,-0.2037,-0.2037,-0.2064,-0.2064,-0.2064,-0.2033,-0.2032,-0.203,-0.2029,-0.2005,-0.2005,-0.2005,0,0,0,0,0,0,0,0,0,0,0,0,0,-0.1987,-0.196,-0.2036,-0.2026,-0.2026,-0.2064,-0.2064,-0.2065,-0.2033,-0.2032,-0.203,-0.2029,-0.2005,-0.2005,-0.2005,-0.2037,0,0,-0.2006,-0.2007,0,0,0,0,0,0,0,0,-0.1986,-0.199,-0.2027,-0.2027,-0.2027,-0.2046,-0.2028,-0.2053,-0.2033,-0.2028,-0.203,-0.2028,-0.2016,-0.2016,-0.2021,-0.2036,-0.2035,-0.2006,-0.2007,-0.2007,-0.2007,0,0,0,0,0,0,0,-0.1984,-0.1988,-0.2045,-0.2028,-0.2028,-0.2022,-0.2024,-0.2033,-0.2027,-0.2028,-0.2026,-0.2034,-0.2015,-0.2021,-0.202,-0.2034,-0.2006,-0.2007,-0.2007,-0.2007,-0.2051,-0.2052,0,0,0,0,0,0,-0.1987,-0.1987,-0.2044,-0.2046,-0.2005,-0.2025,-0.2027,-0.2039,-0.2028,-0.2026,-0.2035,-0.2033,-0.2021,-0.202,-0.2019,-0.2039,-0.2007,-0.2007,-0.2007,-0.205,-0.2052,-0.2053,0,0,0,0,0,0,-0.1985,-0.1992,-0.2043,-0.2018,-0.2025,-0.2028,-0.2041,-0.204,-0.204,-0.2035,-0.2031,-0.2035,-0.202,-0.2019,-0.2026,-0.2038,-0.2007,-0.2008,-0.2049,-0.2051,-0.2052,-0.2088,0,0,0,0,0,0,-0.1983,-0.1991,-0.1997,-0.2019,-0.2026,-0.2067,-0.2043,-0.2042,-0.2048,-0.2045,-0.2034,-0.203,-0.2019,-0.2026,-0.2026,-0.2038,-0.2008,-0.2048,-0.205,-0.2052,-0.2086,-0.2091,-0.2095,0,0,0,0,0,-0.198,-0.1994,-0.1997,-0.2004,-0.2035,-0.2068,-0.2071,-0.2066,-0.205,-0.2058,-0.2048,-0.203,-0.2037,-0.2027,-0.2027,-0.2039,-0.2047,-0.2049,-0.2051,-0.2084,-0.209,-0.2095,0,0,0,0,0,0,-0.1958,-0.1993,-0.1996,-0.2018,-0.2043,-0.2063,-0.2069,-0.207,-0.207,-0.2061,-0.2046,-0.2043,-0.2053,-0.2046,-0.2035,-0.2058,-0.2038,-0.2041,-0.2063,-0.2068,-0.2073,-0.2068,-0.2008,0,0,0,0,0,-0.196,-0.1978,-0.2012,-0.2028,-0.2042,-0.2057,-0.2067,-0.207,-0.2078,-0.2075,-0.2069,-0.2063,-0.2067,-0.2065,-0.2068,-0.2085,-0.2062,-0.2092,-0.2097,-0.21,-0.2098,-0.2083,-0.2086,-0.206,-0.206,-0.206,0,0,-0.1953,-0.1977,-0.1985,-0.2025,-0.204,-0.207,-0.2058,-0.208,-0.2098,-0.2074,-0.2085,-0.208,-0.2075,-0.209,-0.2094,-0.2083,-0.2095,-0.2103,-0.2106,-0.2101,-0.2085,-0.2088,-0.209,-0.2061,-0.2061,-0.2061,0,0,-0.196,-0.1975,-0.1997,-0.2024,-0.2059,-0.2075,-0.2083,-0.2109,-0.211,-0.2131,-0.2115,-0.2117,-0.2125,-0.2123,-0.2123,-0.2157,-0.2121,-0.2158,-0.2175,-0.2161,-0.2163,-0.2164,-0.2132,-0.213,-0.2158,-0.2158,-0.2158,0,-0.195,-0.1982,-0.2007,-0.2041,-0.2061,-0.2079,-0.2107,-0.2124,-0.2146,-0.2147,-0.2136,-0.2141,-0.2141,-0.2151,-0.2165,-0.2166,-0.2144,-0.2153,-0.2166,-0.2166,-0.2167,-0.2134,-0.2131,-0.216,-0.216,-0.216,-0.216,0,-0.1978,-0.2005,-0.202,-0.2068,-0.2097,-0.2122,-0.2158,-0.2174,-0.2175,-0.2184,-0.219,-0.2188,-0.2185,-0.2192,-0.2191,-0.2199,-0.2176,-0.2173,-0.2148,-0.2171,-0.2135,-0.2132,-0.2163,-0.2162,-0.2162,-0.2161,0,0,-0.1944,-0.2023,-0.2025,-0.2049,-0.211,-0.2132,-0.2172,-0.2203,-0.2211,-0.2224,-0.2225,-0.2241,-0.2227,-0.2226,-0.2221,-0.2214,-0.2205,-0.2198,-0.2197,-0.216,-0.2157,-0.2062,-0.2049,-0.2201,-0.2201,-0.2201,-0.2127,0,-0.195,-0.2009,-0.205,-0.2096,-0.2125,-0.2163,-0.2199,-0.223,-0.2241,-0.2249,-0.2244,-0.2245,-0.2244,-0.2238,-0.2235,-0.2217,-0.2199,-0.2224,-0.2145,-0.2143,-0.2051,-0.2043,-0.1916,-0.1833,-0.2124,-0.2123,-0.2122,0,-0.1953,-0.1993,-0.204,-0.2106,-0.2121,-0.2151,-0.219,-0.2224,-0.2252,-0.2261,-0.2261,-0.2254,-0.2255,-0.2245,-0.2213,-0.2227,-0.2194,-0.2174,-0.217,-0.2065,-0.2041,-0.1859,-0.1815,-0.1805,-0.2117,-0.2117,-0.2117,0,-0.19,-0.1978,-0.2009,-0.2033,-0.2115,-0.2132,-0.2167,-0.2212,-0.2238,-0.2255,-0.2263,-0.2259,-0.2244,-0.2221,-0.2185,-0.2198,-0.2131,-0.2142,-0.2019,-0.2012,-0.1879,-0.1859,-0.1807,-0.2104,-0.2105,-0.2105,-0.2105,0,-0.1879,-0.1899,-0.1982,-0.1995,-0.2028,-0.2096,-0.2126,-0.2161,-0.221,-0.2178,-0.2253,-0.2208,-0.2237,-0.2201,-0.2176,-0.2074,-0.2119,-0.2009,-0.1984,-0.1887,-0.187,-0.1834,-0.188,-0.2102,-0.2103,-0.2103,-0.2104,0,-0.1807,-0.1867,-0.1901,-0.1979,-0.2003,-0.2018,-0.2107,-0.2113,-0.2183,-0.214,-0.2142,-0.2178,-0.2107,-0.2126,-0.2069,-0.2037,-0.1926,-0.1921,-0.1797,-0.1758,-0.1627,-0.1679,-0.1617,-0.1575,-0.1769,-0.1766,-0.1764,0,-0.1773,-0.1784,-0.1865,-0.1876,-0.1903,-0.1952,-0.1971,-0.2072,-0.2058,-0.2057,-0.1999,-0.1986,-0.1863,-0.1817,-0.1786,-0.1727,-0.1782,-0.1599,-0.1603,-0.1585,-0.1627,-0.1686,-0.1661,-0.1442,-0.1437,-0.1433,-0.143,0,-0.1687,-0.1715,-0.1739,-0.1772,-0.1789,-0.1809,-0.1824,-0.1814,-0.1841,-0.1794,-0.1628,-0.1542,-0.1527,-0.1418,-0.1455,-0.1412,-0.1558,-0.1513,-0.1529,-0.1387,-0.1414,-0.1371,-0.153,-0.1395,-0.1398,-0.1401,-0.1403,-0.1404,-0.1601,-0.1596,-0.1624,-0.1639,-0.1652,-0.1581,-0.1531,-0.1503,-0.1407,-0.1235,-0.1219,-0.1024,-0.1129,-0.1142,-0.1128,-0.1147,-0.1251,-0.1126,-0.1196,-0.1261,-0.1205,-0.1275,-0.1096,-0.1098,-0.1099,-0.1101,-0.1102,0,-0.148,-0.1481,-0.1487,-0.1476,-0.1413,-0.1465,-0.137,-0.1268,-0.1042,-0.0872,-0.0683,-0.0567,-0.0612,-0.0773,-0.0901,-0.0865,-0.0879,-0.0878,-0.0943,-0.0936,-0.0997,-0.0966,-0.0708,-0.0708,-0.0708,-0.0708,-0.0708,-0.0708,-0.1414,-0.1373,-0.1378,-0.1233,-0.1208,-0.1051,-0.0946,-0.0793,-0.0653,-0.0333,-0.0172,-0.0087,-0.0361,-0.0722,-0.0826,-0.0787,-0.0822,-0.0769,-0.0857,-0.0917,-0.0947,-0.0976,-0.0954,-0.0699,-0.0699,-0.0717,-0.0717,-0.0718]},{"header":{"parameterUnit":"m.s-1","parameterCategory":2,"la1":30.2991,"la2":30.254,"lo1":-89.0895,"lo2":-89.0444,"dy":0.0017,"dx":0.0017,"nx":28,"ny":28,"refTime":"2024-07-20T03:00:00:Z","depth":"0","parameterNumber":3,"parameterNumberName":"V-component_of_CURRENTS"},"data":[0,0,0,0,0,0,0,0,0,0,0,0,0,0,0,0,0,0,0,0,0,0,0,0,0,0,0,0,0,0,0,0,0,0,0,0,0,0,0,0,0,0,0,0,0,0,0,0,0,0,0,0,0,0,0,0,0,0,-0.0082,-0.0081,0,-0.0019,-0.0018,-0.0017,0.0038,0.0038,0.0039,0.0039,0.0128,0.013,0.0132,0,0,0,0,0,0,0,0,0,0,0,0,0,-0.0122,-0.0122,-0.0082,-0.0081,-0.008,-0.0019,-0.0018,-0.0017,0.0038,0.0038,0.0039,0.004,0.0127,0.0129,0.0132,0,0,0,0,0,0,0,0,0,0,0,0,0,-0.0086,-0.0122,-0.0082,-0.0046,-0.0043,-0.0019,-0.0018,-0.0016,0.0038,0.0038,0.0039,0.004,0.0127,0.0129,0.0132,0.0133,0,0,0.0141,0.0142,0,0,0,0,0,0,0,0,-0.0088,-0.0084,-0.0052,-0.0049,-0.0045,0.0002,0.0001,0.0035,0.0037,0.0008,0.0039,0.004,0.0087,0.0093,0.0104,0.0137,0.0141,0.0141,0.0142,0.0144,0.0144,0,0,0,0,0,0,0,-0.009,-0.0086,-0.0056,-0.0052,-0.0047,-0.0022,-0.0017,0.0007,0.0043,0.0011,0.0015,0.002,0.0089,0.0101,0.0107,0.0142,0.0141,0.0143,0.0145,0.0146,0.0203,0.0203,0,0,0,0,0,0,-0.0103,-0.0089,-0.0058,-0.0054,-0.0066,-0.0023,-0.0016,-0.0013,0.0043,0.0052,0.0019,0.0022,0.0096,0.0103,0.011,0.0117,0.0144,0.0146,0.0148,0.0203,0.0203,0.0203,0,0,0,0,0,0,-0.0104,-0.0101,-0.006,-0.007,-0.0064,-0.0023,-0.002,-0.0012,0.0001,0.0049,0.0058,0.0024,0.0097,0.0106,0.0132,0.012,0.0148,0.015,0.0203,0.0203,0.0203,0.0129,0,0,0,0,0,0,-0.0105,-0.0102,-0.0107,-0.0072,-0.0064,-0.0055,-0.0021,-0.0012,0.0002,0.0007,0.0056,0.0065,0.0098,0.0127,0.0134,0.0125,0.0152,0.0204,0.0203,0.0203,0.0131,0.0126,0.0121,0,0,0,0,0,-0.0107,-0.0122,-0.0107,-0.0103,-0.0071,-0.0055,-0.0049,-0.0016,0.0002,0.0,0.0038,0.0064,0.0131,0.0129,0.0138,0.0129,0.0204,0.0203,0.0203,0.0134,0.0127,0.0122,0,0,0,0,0,0,-0.0144,-0.0117,-0.01,-0.0106,-0.0085,-0.0047,-0.0048,-0.0023,0.0006,0.0011,0.006,0.0071,0.009,0.012,0.0117,0.0146,0.0172,0.0173,0.0116,0.0111,0.0106,0.01,0.0155,0,0,0,0,0,-0.0155,-0.0158,-0.0125,-0.0131,-0.0124,-0.0086,-0.0076,-0.0053,-0.0023,-0.0009,0.0026,0.0064,0.0094,0.0111,0.014,0.0153,0.0194,0.0155,0.015,0.0145,0.0147,0.0194,0.0194,0.0202,0.0202,0.0202,0,0,-0.017,-0.0157,-0.0158,-0.0139,-0.012,-0.012,-0.0078,-0.0069,-0.0065,-0.0005,0.0008,0.0045,0.0093,0.0109,0.012,0.0134,0.0165,0.0145,0.014,0.0145,0.0194,0.0193,0.0192,0.0201,0.0201,0.0202,0,0,-0.0212,-0.0192,-0.0211,-0.0197,-0.0176,-0.015,-0.015,-0.0115,-0.0095,-0.0077,-0.0032,-0.0001,0.0041,0.0075,0.0098,0.0083,0.0135,0.0092,0.0063,0.0108,0.0107,0.0108,0.0158,0.0163,0.0091,0.0091,0.0091,0,-0.0232,-0.0249,-0.0214,-0.0229,-0.0223,-0.0168,-0.0184,-0.0157,-0.0117,-0.0101,-0.0082,-0.001,0.0025,0.0056,0.0053,0.0071,0.0109,0.0078,0.01,0.0101,0.0103,0.0155,0.0161,0.0087,0.0088,0.0088,0.0088,0,-0.0284,-0.0297,-0.0309,-0.0305,-0.0293,-0.0299,-0.0255,-0.0239,-0.0204,-0.0169,-0.0131,-0.0077,-0.0031,-0.0017,0.0014,0.0041,0.0069,0.0085,0.0112,0.0097,0.0153,0.0161,0.0082,0.0083,0.0084,0.0085,0,0,-0.0334,-0.0345,-0.035,-0.0364,-0.0334,-0.0333,-0.0319,-0.0289,-0.0273,-0.0226,-0.0201,-0.015,-0.0107,-0.0078,-0.0033,0.0009,0.005,0.0047,0.0051,0.009,0.0157,0.0204,0.0218,0.0069,0.007,0.0071,0.0191,0,-0.0388,-0.044,-0.0422,-0.0459,-0.0476,-0.0423,-0.0412,-0.0372,-0.0321,-0.0281,-0.0211,-0.0169,-0.0133,-0.0107,-0.0064,0.0028,0.0069,0.0016,0.0172,0.0177,0.0214,0.0228,0.0266,0.0378,0.0199,0.0201,0.0202,0,-0.0446,-0.0473,-0.0523,-0.0533,-0.0534,-0.0538,-0.0502,-0.0486,-0.0404,-0.0362,-0.0301,-0.0232,-0.0159,-0.0128,0.001,-0.0024,0.0056,0.0126,0.0132,0.0209,0.0239,0.0366,0.0401,0.0527,0.0215,0.0214,0.0213,0,-0.0503,-0.0544,-0.0587,-0.0592,-0.0587,-0.0591,-0.0579,-0.0511,-0.0482,-0.0405,-0.0356,-0.0271,-0.0199,-0.0105,0.0042,0.0028,0.0205,0.0204,0.0321,0.0325,0.0406,0.0416,0.0578,0.0295,0.0295,0.0294,0.0294,0,-0.0566,-0.0603,-0.062,-0.0645,-0.0684,-0.0651,-0.0659,-0.0623,-0.0547,-0.047,-0.0401,-0.0304,-0.0186,-0.0061,0.004,0.0219,0.0205,0.0327,0.0363,0.0382,0.0388,0.054,0.0585,0.0299,0.0298,0.0297,0.0296,0,-0.062,-0.0633,-0.0689,-0.0708,-0.0715,-0.074,-0.0718,-0.0699,-0.0621,-0.0512,-0.0479,-0.0321,-0.015,-0.0031,0.0152,0.024,0.0475,0.0446,0.0463,0.0498,0.0707,0.0746,0.0933,0.1028,0.059,0.0592,0.0594,0,-0.0655,-0.0688,-0.0743,-0.077,-0.0783,-0.0808,-0.0803,-0.0748,-0.0672,-0.0481,-0.0394,-0.0234,-0.0051,0.0196,0.034,0.0507,0.0586,0.0647,0.0622,0.074,0.0809,0.0817,0.0883,0.0704,0.0706,0.0708,0.071,0,-0.0711,-0.0729,-0.0771,-0.0827,-0.0848,-0.085,-0.0803,-0.0748,-0.0601,-0.0489,-0.0242,-0.0097,0.0147,0.037,0.0544,0.064,0.0751,0.0693,0.0818,0.0919,0.0938,0.1038,0.0604,0.0727,0.0725,0.0724,0.0723,0.0722,-0.0741,-0.0785,-0.0828,-0.0873,-0.0876,-0.0805,-0.0756,-0.0645,-0.0503,-0.022,-0.0124,0.0139,0.0425,0.0677,0.0788,0.098,0.0924,0.104,0.108,0.1079,0.1165,0.0769,0.0924,0.0924,0.0923,0.0923,0.0923,0,-0.0767,-0.0804,-0.086,-0.0865,-0.0819,-0.0821,-0.0681,-0.0564,-0.0336,-0.012,0.0096,0.0478,0.0757,0.098,0.1228,0.1363,0.1384,0.1411,0.1438,0.1491,0.1155,0.1154,0.1363,0.1363,0.1363,0.1363,0.1362,0.1362,-0.0779,-0.0833,-0.0858,-0.0785,-0.0753,-0.0617,-0.0505,-0.0333,-0.0148,0.0195,0.0442,0.0641,0.0969,0.1395,0.1678,0.1703,0.1847,0.1797,0.1885,0.165,0.1618,0.1587,0.1598,0.1897,0.1898,0.2212,0.2215,0.2218]}],[{"header":{"parameterUnit":"m.s-1","parameterCategory":2,"la1":30.2991,"la2":30.254,"lo1":-89.0895,"lo2":-89.0444,"dy":0.0017,"dx":0.0017,"nx":28,"ny":28,"refTime":"2024-07-20T03:00:00:Z","depth":"2","parameterNumber":2,"parameterNumberName":"U-component_of_CURRENTS"},"data":[0,0,0,0,0,0,0,0,0,0,0,0,0,0,0,0,0,0,0,0,0,0,0,0,0,0,0,0,0,0,0,0,0,0,0,0,0,0,0,0,0,0,0,0,0,0,0,0,0,0,0,0,0,0,0,0,0,0,-0.2012,-0.2013,0,-0.2046,-0.2046,-0.2046,-0.2022,-0.2021,-0.202,-0.202,-0.2008,-0.2008,-0.2009,0,0,0,0,0,0,0,0,0,0,0,0,0,-0.1938,-0.194,-0.2012,-0.2013,-0.2014,-0.2046,-0.2046,-0.2046,-0.2022,-0.2021,-0.202,-0.2019,-0.2007,-0.2008,-0.2009,0,0,0,0,0,0,0,0,0,0,0,0,0,-0.1969,-0.194,-0.2012,-0.2007,-0.2007,-0.2046,-0.2046,-0.2046,-0.2023,-0.2021,-0.202,-0.2019,-0.2007,-0.2008,-0.2009,-0.2039,0,0,-0.2011,-0.2011,0,0,0,0,0,0,0,0,-0.1967,-0.1971,-0.2007,-0.2008,-0.2008,-0.203,-0.2016,-0.2042,-0.2023,-0.2014,-0.202,-0.2018,-0.2013,-0.2014,-0.202,-0.2038,-0.2038,-0.2011,-0.2011,-0.2012,-0.2012,0,0,0,0,0,0,0,-0.1965,-0.197,-0.2023,-0.2008,-0.2008,-0.2007,-0.2009,-0.2021,-0.2018,-0.2015,-0.2014,-0.2022,-0.2013,-0.202,-0.202,-0.2038,-0.2011,-0.2012,-0.2012,-0.2012,-0.2066,-0.2067,0,0,0,0,0,0,-0.1967,-0.1968,-0.2022,-0.2025,-0.1986,-0.2009,-0.2012,-0.2023,-0.2019,-0.2018,-0.2023,-0.202,-0.2019,-0.2019,-0.2019,-0.2044,-0.2012,-0.2012,-0.2013,-0.2065,-0.2066,-0.2067,0,0,0,0,0,0,-0.1965,-0.1971,-0.2021,-0.1998,-0.2005,-0.2012,-0.2024,-0.2024,-0.2027,-0.2026,-0.2023,-0.2025,-0.2018,-0.2018,-0.203,-0.2044,-0.2013,-0.2013,-0.2064,-0.2065,-0.2067,-0.2101,0,0,0,0,0,0,-0.1963,-0.1971,-0.1976,-0.1999,-0.2006,-0.2047,-0.2026,-0.2026,-0.2035,-0.2032,-0.2028,-0.2025,-0.2017,-0.2029,-0.2031,-0.2044,-0.2014,-0.2063,-0.2064,-0.2066,-0.2099,-0.2103,-0.2108,0,0,0,0,0,-0.196,-0.1973,-0.1977,-0.1983,-0.2015,-0.2048,-0.2051,-0.205,-0.2036,-0.2046,-0.204,-0.2025,-0.2042,-0.2031,-0.2032,-0.2046,-0.2062,-0.2064,-0.2066,-0.2097,-0.2102,-0.2107,0,0,0,0,0,0,-0.194,-0.1973,-0.1977,-0.1998,-0.2023,-0.2044,-0.2052,-0.2054,-0.2059,-0.2052,-0.2041,-0.204,-0.2056,-0.205,-0.2038,-0.2068,-0.2048,-0.2051,-0.2071,-0.2077,-0.2081,-0.2079,-0.2014,0,0,0,0,0,-0.1942,-0.196,-0.1992,-0.2008,-0.2022,-0.2038,-0.2049,-0.2055,-0.2065,-0.2065,-0.2063,-0.2062,-0.207,-0.2071,-0.2078,-0.2097,-0.2076,-0.2106,-0.2111,-0.2115,-0.2115,-0.2101,-0.2104,-0.2075,-0.2075,-0.2074,0,0,-0.1937,-0.1959,-0.1967,-0.2006,-0.2021,-0.2052,-0.2041,-0.2065,-0.2085,-0.2065,-0.2082,-0.208,-0.208,-0.2099,-0.2105,-0.2093,-0.2111,-0.2117,-0.2121,-0.2119,-0.2104,-0.2106,-0.2109,-0.2076,-0.2076,-0.2076,0,0,-0.1945,-0.1959,-0.198,-0.2008,-0.2043,-0.2059,-0.2068,-0.2095,-0.2099,-0.2125,-0.2112,-0.2118,-0.2132,-0.2133,-0.2135,-0.2171,-0.2138,-0.2173,-0.2192,-0.2179,-0.218,-0.2182,-0.2152,-0.215,-0.2172,-0.2172,-0.2172,0,-0.1938,-0.1969,-0.1991,-0.2025,-0.2045,-0.2064,-0.2093,-0.2112,-0.2138,-0.2142,-0.2133,-0.2148,-0.2149,-0.2165,-0.2179,-0.218,-0.216,-0.2169,-0.2183,-0.2184,-0.2185,-0.2154,-0.2151,-0.2174,-0.2174,-0.2174,-0.2174,0,-0.1966,-0.1992,-0.2008,-0.2055,-0.2084,-0.211,-0.2146,-0.2166,-0.2171,-0.2182,-0.2196,-0.2197,-0.22,-0.2207,-0.2206,-0.2217,-0.2196,-0.2191,-0.2166,-0.219,-0.2155,-0.2153,-0.2177,-0.2176,-0.2176,-0.2175,0,0,-0.1935,-0.2011,-0.2014,-0.204,-0.2099,-0.2124,-0.2166,-0.22,-0.2214,-0.223,-0.2237,-0.2258,-0.2246,-0.2248,-0.2243,-0.2236,-0.2228,-0.2219,-0.2217,-0.2183,-0.2183,-0.2093,-0.2081,-0.2222,-0.2222,-0.2222,-0.2154,0,-0.1943,-0.2002,-0.2041,-0.209,-0.2121,-0.216,-0.2198,-0.2233,-0.2248,-0.2262,-0.226,-0.2267,-0.2265,-0.2261,-0.2258,-0.224,-0.2223,-0.2246,-0.2171,-0.2168,-0.208,-0.2076,-0.1923,-0.1842,-0.2151,-0.215,-0.215,0,-0.1948,-0.1988,-0.2037,-0.2106,-0.2122,-0.2155,-0.2202,-0.2238,-0.227,-0.2281,-0.2286,-0.2283,-0.2285,-0.2274,-0.2244,-0.2257,-0.2224,-0.2202,-0.2199,-0.21,-0.2073,-0.1871,-0.1825,-0.2144,-0.2145,-0.2145,-0.2145,0,-0.1902,-0.198,-0.2013,-0.2038,-0.2123,-0.2144,-0.2181,-0.223,-0.2257,-0.228,-0.2291,-0.2291,-0.228,-0.2256,-0.222,-0.2231,-0.2169,-0.2176,-0.2058,-0.2051,-0.1898,-0.1877,-0.2142,-0.2142,-0.2142,-0.2142,-0.2142,0,-0.1886,-0.191,-0.1991,-0.2008,-0.2044,-0.2114,-0.2147,-0.2186,-0.2236,-0.2259,-0.2285,-0.2284,-0.2275,-0.2244,-0.2214,-0.2116,-0.216,-0.2052,-0.2026,-0.1905,-0.1886,-0.2135,-0.2135,-0.214,-0.214,-0.2141,-0.2141,0,-0.1822,-0.188,-0.1919,-0.2,-0.2023,-0.2041,-0.2125,-0.214,-0.2208,-0.2236,-0.2244,-0.2268,-0.2206,-0.2178,-0.2121,-0.2087,-0.202,-0.1973,-0.1822,-0.178,-0.1912,-0.1916,-0.1834,-0.183,-0.1827,-0.1824,-0.1822,0,-0.1793,-0.1807,-0.1887,-0.1898,-0.1928,-0.1977,-0.1999,-0.2097,-0.2117,-0.2216,-0.2205,-0.2182,-0.2121,-0.2001,-0.1898,-0.179,-0.1893,-0.1635,-0.1631,-0.1897,-0.188,-0.1889,-0.1896,-0.144,-0.1435,-0.143,-0.1427,0,-0.1719,-0.1746,-0.1771,-0.1802,-0.1825,-0.1875,-0.1921,-0.1952,-0.2062,-0.2102,-0.2133,-0.2101,-0.1951,-0.1744,-0.1597,-0.1533,-0.1643,-0.1544,-0.1848,-0.1546,-0.152,-0.1506,-0.1527,-0.1389,-0.1393,-0.1396,-0.1398,-0.1399,-0.1641,-0.1637,-0.1665,-0.1678,-0.171,-0.1748,-0.1755,-0.1814,-0.186,-0.1866,-0.1972,-0.1858,-0.1781,-0.143,-0.1321,-0.1218,-0.1332,-0.1311,-0.1326,-0.1345,-0.1316,-0.1287,-0.1105,-0.1107,-0.1109,-0.1111,-0.1112,0,-0.1532,-0.1531,-0.1538,-0.1564,-0.1553,-0.1617,-0.1666,-0.1623,-0.1622,-0.1635,-0.1637,-0.1465,-0.1278,-0.1177,-0.0934,-0.0893,-0.0903,-0.0881,-0.0906,-0.0942,-0.0975,-0.0931,-0.0615,-0.0614,-0.0613,-0.0612,0,0,-0.1472,-0.143,-0.1432,-0.1382,-0.1402,-0.1372,-0.1377,-0.1316,-0.1286,-0.119,-0.1138,-0.121,-0.1172,-0.0933,-0.0845,-0.0681,-0.0814,-0.0643,-0.1037,-0.1104,-0.1136,-0.1211,-0.1181,0,0,0,0,0]},{"header":{"parameterUnit":"m.s-1","parameterCategory":2,"la1":30.2991,"la2":30.254,"lo1":-89.0895,"lo2":-89.0444,"dy":0.0017,"dx":0.0017,"nx":28,"ny":28,"refTime":"2024-07-20T03:00:00:Z","depth":"2","parameterNumber":3,"parameterNumberName":"V-component_of_CURRENTS"},"data":[0,0,0,0,0,0,0,0,0,0,0,0,0,0,0,0,0,0,0,0,0,0,0,0,0,0,0,0,0,0,0,0,0,0,0,0,0,0,0,0,0,0,0,0,0,0,0,0,0,0,0,0,0,0,0,0,0,0,-0.0147,-0.0146,0,-0.0084,-0.0083,-0.0082,-0.0032,-0.0032,-0.0031,-0.0031,0.0057,0.0059,0.0061,0,0,0,0,0,0,0,0,0,0,0,0,0,-0.0186,-0.0186,-0.0147,-0.0146,-0.0146,-0.0084,-0.0083,-0.0082,-0.0032,-0.0032,-0.0031,-0.0031,0.0056,0.0059,0.0061,0,0,0,0,0,0,0,0,0,0,0,0,0,-0.015,-0.0186,-0.0147,-0.0114,-0.0111,-0.0084,-0.0083,-0.0082,-0.0032,-0.0032,-0.0031,-0.0031,0.0056,0.0059,0.0061,0.0068,0,0,0.0071,0.0072,0,0,0,0,0,0,0,0,-0.0152,-0.0148,-0.012,-0.0116,-0.0112,-0.0066,-0.0064,-0.0031,-0.0032,-0.0061,-0.0031,-0.003,0.0017,0.0023,0.0035,0.0072,0.0076,0.0071,0.0073,0.0074,0.0075,0,0,0,0,0,0,0,-0.0155,-0.0151,-0.0121,-0.0119,-0.0115,-0.0089,-0.0084,-0.0058,-0.0025,-0.0058,-0.0055,-0.005,0.0019,0.0032,0.0037,0.0077,0.0071,0.0073,0.0075,0.0076,0.0144,0.0144,0,0,0,0,0,0,-0.0167,-0.0153,-0.0123,-0.0119,-0.0132,-0.0089,-0.0083,-0.0081,-0.0025,-0.0017,-0.005,-0.0048,0.0027,0.0034,0.0041,0.0057,0.0074,0.0077,0.0078,0.0144,0.0144,0.0144,0,0,0,0,0,0,-0.0168,-0.0165,-0.0125,-0.0135,-0.0129,-0.009,-0.0087,-0.008,-0.0066,-0.002,-0.001,-0.0044,0.0027,0.0037,0.0065,0.0061,0.0078,0.0081,0.0144,0.0144,0.0144,0.0086,0,0,0,0,0,0,-0.017,-0.0166,-0.0171,-0.0136,-0.0129,-0.0117,-0.0088,-0.0079,-0.0064,-0.006,-0.0012,-0.0003,0.0029,0.006,0.0068,0.0065,0.0083,0.0144,0.0144,0.0144,0.0088,0.0084,0.0081,0,0,0,0,0,-0.0172,-0.0184,-0.0172,-0.0168,-0.0136,-0.0117,-0.0111,-0.008,-0.0065,-0.0064,-0.0027,-0.0004,0.0066,0.0062,0.0072,0.0069,0.0144,0.0144,0.0144,0.0089,0.0085,0.0081,0,0,0,0,0,0,-0.0205,-0.0179,-0.0165,-0.0169,-0.0147,-0.0109,-0.0108,-0.0085,-0.0056,-0.0051,-0.0005,0.0006,0.0028,0.0058,0.0053,0.009,0.0109,0.0111,0.0065,0.0061,0.0057,0.0048,0.0085,0,0,0,0,0,-0.0215,-0.0217,-0.0186,-0.019,-0.0182,-0.0145,-0.0135,-0.0113,-0.0083,-0.0069,-0.0035,0.0004,0.0035,0.0054,0.0084,0.0103,0.0139,0.0109,0.0106,0.0102,0.0102,0.0151,0.0152,0.0145,0.0145,0.0145,0,0,-0.0228,-0.0216,-0.0216,-0.0197,-0.0178,-0.0173,-0.0137,-0.0126,-0.0118,-0.0065,-0.0046,-0.0011,0.0037,0.0059,0.0072,0.0084,0.0123,0.0103,0.0099,0.0101,0.0151,0.0152,0.0152,0.0145,0.0145,0.0145,0,0,-0.0263,-0.0246,-0.0261,-0.0246,-0.0224,-0.0199,-0.0198,-0.0163,-0.0142,-0.012,-0.0079,-0.0045,-0.0001,0.0036,0.006,0.0056,0.0099,0.0063,0.0042,0.0089,0.009,0.0091,0.0132,0.0138,0.0065,0.0065,0.0065,0,-0.0281,-0.0293,-0.0262,-0.0272,-0.0263,-0.0214,-0.0223,-0.0196,-0.0155,-0.0136,-0.0123,-0.0046,-0.001,0.003,0.0029,0.0047,0.0079,0.0051,0.0083,0.0085,0.0088,0.013,0.0137,0.0062,0.0063,0.0063,0.0063,0,-0.0322,-0.0332,-0.034,-0.0332,-0.0317,-0.0319,-0.0275,-0.0257,-0.0225,-0.019,-0.0147,-0.0093,-0.0045,-0.003,-0.0002,0.0032,0.0051,0.0068,0.0091,0.0085,0.013,0.0138,0.0058,0.0059,0.006,0.0061,0,0,-0.0367,-0.037,-0.0374,-0.0384,-0.035,-0.0346,-0.0325,-0.0291,-0.0273,-0.0226,-0.0196,-0.014,-0.0102,-0.0072,-0.0029,0.0013,0.0054,0.0042,0.0046,0.0076,0.0154,0.0185,0.0197,0.0075,0.0076,0.0077,0.0178,0,-0.0411,-0.045,-0.043,-0.0456,-0.0467,-0.0416,-0.0399,-0.0357,-0.0308,-0.0266,-0.0194,-0.0153,-0.0119,-0.0096,-0.0049,0.0031,0.0073,0.0025,0.0162,0.0166,0.0189,0.0207,0.0194,0.0285,0.0186,0.0187,0.0188,0,-0.0458,-0.0478,-0.0515,-0.0517,-0.0516,-0.0516,-0.0474,-0.0454,-0.0372,-0.0331,-0.0268,-0.0205,-0.0131,-0.0106,0.0026,-0.0006,0.0065,0.0126,0.0131,0.0187,0.0212,0.0277,0.0304,0.0202,0.0201,0.02,0.0199,0,-0.051,-0.0538,-0.0572,-0.0573,-0.056,-0.056,-0.0545,-0.0476,-0.0453,-0.037,-0.0332,-0.0236,-0.0175,-0.0081,0.0048,0.0038,0.0197,0.0202,0.0297,0.03,0.0331,0.0335,0.029,0.029,0.029,0.0289,0.0289,0,-0.0563,-0.0593,-0.0603,-0.0623,-0.0654,-0.0617,-0.0621,-0.0583,-0.0515,-0.0489,-0.0374,-0.0311,-0.0165,-0.0051,0.0046,0.0204,0.02,0.0301,0.0333,0.031,0.0311,0.0272,0.0269,0.0293,0.0292,0.0292,0.0291,0,-0.0616,-0.0622,-0.0668,-0.0678,-0.0683,-0.0705,-0.0688,-0.0679,-0.0602,-0.056,-0.0535,-0.0358,-0.0199,-0.0051,0.0126,0.0213,0.0347,0.04,0.0363,0.0388,0.0417,0.0409,0.0517,0.0519,0.052,0.0522,0.0523,0,-0.0647,-0.0675,-0.0721,-0.075,-0.076,-0.0781,-0.0787,-0.0734,-0.0723,-0.0585,-0.0568,-0.0381,-0.0221,0.007,0.024,0.0429,0.041,0.0513,0.0493,0.0423,0.0443,0.0432,0.0423,0.051,0.0511,0.0512,0.0513,0,-0.0702,-0.0718,-0.0754,-0.0817,-0.0847,-0.0886,-0.0896,-0.0898,-0.0826,-0.0749,-0.0583,-0.0424,-0.0109,0.0148,0.0382,0.0473,0.048,0.0536,0.0492,0.0449,0.0424,0.0441,0.043,0.052,0.0519,0.0519,0.0519,0.0518,-0.0737,-0.0779,-0.0824,-0.0878,-0.0923,-0.0977,-0.0978,-0.0977,-0.0937,-0.0815,-0.0643,-0.0369,-0.009,0.0281,0.045,0.0585,0.0578,0.0605,0.0599,0.0594,0.057,0.0548,0.0663,0.0663,0.0663,0.0663,0.0663,0,-0.0774,-0.0815,-0.0877,-0.0945,-0.1009,-0.1005,-0.1028,-0.1015,-0.0958,-0.0824,-0.0634,-0.0294,0.001,0.0279,0.0528,0.068,0.0647,0.0676,0.0617,0.061,0.0603,0.0576,0.0674,0.0674,0.0674,0.0675,0,0,-0.0794,-0.0856,-0.0887,-0.0995,-0.1035,-0.1053,-0.1048,-0.1024,-0.0927,-0.0769,-0.056,-0.0326,0.0059,0.0222,0.0422,0.0564,0.0528,0.0555,0.0533,0.0432,0.0423,0.0555,0.0505,0,0,0,0,0]}],[{"header":{"parameterUnit":"m.s-1","parameterCategory":2,"la1":30.2991,"la2":30.254,"lo1":-89.0895,"lo2":-89.0444,"dy":0.0017,"dx":0.0017,"nx":28,"ny":28,"refTime":"2024-07-20T03:00:00:Z","depth":"4","parameterNumber":2,"parameterNumberName":"U-component_of_CURRENTS"},"data":[0,0,0,0,0,0,0,0,0,0,0,0,0,0,0,0,0,0,0,0,0,0,0,0,0,0,0,0,0,0,0,0,0,0,0,0,0,0,0,0,0,0,0,0,0,0,0,0,0,0,0,0,0,0,0,0,0,0,-0.1498,-0.1499,0,-0.1568,-0.1569,-0.157,-0.1604,-0.1604,-0.1604,-0.1604,-0.1667,-0.1669,-0.167,0,0,0,0,0,0,0,0,0,0,0,0,0,-0.1406,-0.1407,-0.1498,-0.1499,-0.15,-0.1568,-0.1569,-0.157,-0.1604,-0.1604,-0.1604,-0.1604,-0.1667,-0.1669,-0.1671,0,0,0,0,0,0,0,0,0,0,0,0,0,-0.1457,-0.1408,-0.1498,-0.1526,-0.1529,-0.1568,-0.1569,-0.157,-0.1604,-0.1604,-0.1604,-0.1604,-0.1666,-0.1668,-0.1671,-0.1682,0,0,-0.1678,-0.1679,0,0,0,0,0,0,0,0,-0.1454,-0.146,-0.1521,-0.1524,-0.1528,-0.1579,-0.156,-0.1608,-0.1604,-0.1574,-0.1604,-0.1604,-0.1638,-0.1642,-0.1654,-0.1685,-0.1688,-0.1678,-0.168,-0.1681,-0.1681,0,0,0,0,0,0,0,-0.145,-0.1457,-0.1524,-0.1522,-0.1526,-0.154,-0.1547,-0.1569,-0.1603,-0.1577,-0.158,-0.159,-0.1639,-0.1651,-0.1655,-0.1689,-0.1678,-0.168,-0.1682,-0.1683,-0.1791,-0.1792,0,0,0,0,0,0,-0.1444,-0.1454,-0.1522,-0.1527,-0.1492,-0.1542,-0.1549,-0.1561,-0.1603,-0.161,-0.1589,-0.1591,-0.1647,-0.1652,-0.1658,-0.1728,-0.1681,-0.1683,-0.1684,-0.1789,-0.1791,-0.1793,0,0,0,0,0,0,-0.1441,-0.1449,-0.1519,-0.1493,-0.1503,-0.1543,-0.1556,-0.1562,-0.1598,-0.1613,-0.162,-0.1621,-0.1647,-0.1654,-0.1702,-0.1729,-0.1684,-0.1686,-0.1788,-0.179,-0.1792,-0.1835,0,0,0,0,0,0,-0.1439,-0.1448,-0.1467,-0.1492,-0.1504,-0.156,-0.1556,-0.1564,-0.1603,-0.1607,-0.1642,-0.1647,-0.1648,-0.1698,-0.1704,-0.1731,-0.1688,-0.1786,-0.1789,-0.1791,-0.1831,-0.1838,-0.1844,0,0,0,0,0,-0.1435,-0.1456,-0.1468,-0.1477,-0.1525,-0.1562,-0.157,-0.1597,-0.1605,-0.1628,-0.1653,-0.1647,-0.1719,-0.1702,-0.1708,-0.1737,-0.1785,-0.1788,-0.1791,-0.1829,-0.1837,-0.1843,0,0,0,0,0,0,-0.1427,-0.1462,-0.1476,-0.1507,-0.1541,-0.1568,-0.1596,-0.1612,-0.1651,-0.1661,-0.1669,-0.1676,-0.1727,-0.1729,-0.1709,-0.1776,-0.175,-0.1755,-0.1776,-0.1784,-0.179,-0.1783,-0.169,0,0,0,0,0,-0.1434,-0.1461,-0.1494,-0.1524,-0.1542,-0.1574,-0.1597,-0.1618,-0.1649,-0.1667,-0.1692,-0.1717,-0.1742,-0.1761,-0.1784,-0.1823,-0.1802,-0.1845,-0.1851,-0.1857,-0.1856,-0.1849,-0.1854,-0.1804,-0.1803,-0.1803,0,0,-0.144,-0.1464,-0.148,-0.1525,-0.1553,-0.1589,-0.1589,-0.1634,-0.1669,-0.1667,-0.1729,-0.1744,-0.1758,-0.1802,-0.1824,-0.181,-0.186,-0.1861,-0.1865,-0.1862,-0.1853,-0.1858,-0.1862,-0.1806,-0.1805,-0.1805,0,0,-0.1458,-0.1487,-0.1515,-0.1547,-0.1597,-0.1618,-0.1637,-0.1681,-0.1709,-0.1764,-0.1769,-0.1801,-0.1848,-0.1858,-0.1867,-0.1922,-0.1894,-0.1935,-0.196,-0.1954,-0.1958,-0.1961,-0.1934,-0.1935,-0.1936,-0.1936,-0.1936,0,-0.1467,-0.1503,-0.1531,-0.1567,-0.1598,-0.1634,-0.1672,-0.1706,-0.1763,-0.1784,-0.1792,-0.1853,-0.1871,-0.1904,-0.1927,-0.1935,-0.1919,-0.1929,-0.196,-0.1963,-0.1965,-0.1937,-0.1937,-0.1939,-0.1938,-0.1938,-0.1938,0,-0.1498,-0.154,-0.1561,-0.1618,-0.1655,-0.1696,-0.1742,-0.1786,-0.1821,-0.1846,-0.1899,-0.1919,-0.1948,-0.1963,-0.1966,-0.1995,-0.1974,-0.1968,-0.1936,-0.1972,-0.1941,-0.194,-0.1942,-0.1941,-0.1941,-0.194,0,0,-0.1478,-0.1566,-0.1575,-0.1612,-0.1685,-0.1716,-0.178,-0.1834,-0.1869,-0.192,-0.1953,-0.2002,-0.2005,-0.2016,-0.202,-0.2022,-0.2027,-0.2008,-0.2006,-0.1972,-0.2,-0.1863,-0.1848,-0.2026,-0.2027,-0.2027,-0.1969,0,-0.1495,-0.1564,-0.1607,-0.1679,-0.1718,-0.1773,-0.1827,-0.1883,-0.1924,-0.1966,-0.1986,-0.2022,-0.2026,-0.2041,-0.2046,-0.2036,-0.2028,-0.2043,-0.1978,-0.1976,-0.1842,-0.1843,-0.2028,-0.1968,-0.1967,-0.1967,-0.1967,0,-0.1502,-0.155,-0.162,-0.1709,-0.1731,-0.1783,-0.1862,-0.1911,-0.1972,-0.2004,-0.2035,-0.2049,-0.2071,-0.2064,-0.2053,-0.2063,-0.2037,-0.202,-0.2017,-0.1872,-0.1836,-0.1927,-0.1964,-0.1964,-0.1964,-0.1965,-0.1965,0,-0.1456,-0.1555,-0.1611,-0.1643,-0.1748,-0.1794,-0.1847,-0.1921,-0.1956,-0.2018,-0.2042,-0.2069,-0.2078,-0.2064,-0.2039,-0.2049,-0.2004,-0.2009,-0.1855,-0.1845,-0.1968,-0.1966,-0.1988,-0.1988,-0.1988,-0.1988,-0.1988,0,-0.1437,-0.1485,-0.1599,-0.1629,-0.1694,-0.1775,-0.1839,-0.1895,-0.1963,-0.198,-0.205,-0.2052,-0.208,-0.2059,-0.2035,-0.1926,-0.1997,-0.1847,-0.1818,-0.1988,-0.1988,-0.1966,-0.1965,-0.1986,-0.1986,-0.1987,-0.1987,0,-0.1371,-0.1449,-0.1518,-0.1637,-0.1674,-0.1716,-0.1823,-0.1847,-0.1939,-0.1959,-0.1977,-0.2036,-0.1991,-0.1989,-0.1952,-0.1896,-0.1826,-0.1771,-0.1937,-0.1921,-0.1673,-0.1675,-0.1587,-0.1582,-0.1577,-0.1573,-0.157,0,-0.1339,-0.1371,-0.15,-0.1529,-0.1585,-0.1663,-0.1697,-0.181,-0.1823,-0.1921,-0.1898,-0.191,-0.192,-0.1761,-0.1779,-0.1695,-0.1679,-0.1649,-0.1674,-0.165,-0.1631,-0.164,-0.1648,-0.1563,-0.1562,-0.1561,-0.1559,0,-0.1268,-0.1328,-0.1377,-0.1436,-0.1485,-0.1529,-0.1587,-0.1595,-0.1694,-0.1804,-0.1775,-0.1754,-0.1693,-0.1652,-0.159,-0.1542,-0.1676,-0.1601,-0.1611,-0.1634,-0.162,-0.1608,-0.1621,-0.1543,-0.1546,-0.1547,-0.1548,0,-0.1207,-0.122,-0.1281,-0.1313,-0.1361,-0.1352,-0.1422,-0.1437,-0.1477,-0.16,-0.158,-0.1607,-0.1667,-0.1568,-0.1515,-0.1446,-0.1426,-0.1408,-0.1428,-0.1446,-0.1423,-0.1386,-0.1197,0,0,0,0,0,-0.1136,-0.1123,-0.1146,-0.1167,-0.1201,-0.1225,-0.1309,-0.138,-0.1495,-0.1428,-0.1507,-0.1449,-0.1389,-0.1411,-0.1299,-0.141,-0.1408,-0.1277,-0.1394,-0.1455,-0.1474,-0.1459,0,0,0,0,0,0,-0.1084,-0.1103,-0.1098,-0.1012,-0.0995,-0.1013,-0.1063,-0.1155,-0.1139,-0.1276,-0.1242,-0.1358,-0.1301,-0.1404,-0.1263,-0.1263,-0.1309,-0.1306,-0.1302,-0.1445,-0.1462,-0.1476,-0.1468,0,0,0,0,0]},{"header":{"parameterUnit":"m.s-1","parameterCategory":2,"la1":30.2991,"la2":30.254,"lo1":-89.0895,"lo2":-89.0444,"dy":0.0017,"dx":0.0017,"nx":28,"ny":28,"refTime":"2024-07-20T03:00:00:Z","depth":"4","parameterNumber":3,"parameterNumberName":"V-component_of_CURRENTS"},"data":[0,0,0,0,0,0,0,0,0,0,0,0,0,0,0,0,0,0,0,0,0,0,0,0,0,0,0,0,0,0,0,0,0,0,0,0,0,0,0,0,0,0,0,0,0,0,0,0,0,0,0,0,0,0,0,0,0,0,-0.0136,-0.0136,0,-0.0088,-0.0088,-0.0087,-0.0052,-0.0052,-0.0052,-0.0052,0.0025,0.0027,0.0029,0,0,0,0,0,0,0,0,0,0,0,0,0,-0.0162,-0.0161,-0.0137,-0.0136,-0.0136,-0.0088,-0.0088,-0.0087,-0.0052,-0.0052,-0.0052,-0.0051,0.0025,0.0027,0.0029,0,0,0,0,0,0,0,0,0,0,0,0,0,-0.0135,-0.0161,-0.0137,-0.0113,-0.0111,-0.0089,-0.0088,-0.0087,-0.0052,-0.0052,-0.0052,-0.0051,0.0024,0.0027,0.0029,0.0041,0,0,0.0038,0.0039,0,0,0,0,0,0,0,0,-0.0136,-0.0134,-0.0117,-0.0115,-0.0112,-0.0077,-0.0068,-0.0043,-0.0052,-0.0073,-0.0052,-0.0051,-0.0007,-0.0002,0.0008,0.0045,0.0048,0.0038,0.004,0.0041,0.0042,0,0,0,0,0,0,0,-0.0138,-0.0135,-0.0116,-0.0117,-0.0114,-0.0093,-0.0089,-0.0063,-0.0041,-0.0071,-0.0069,-0.0066,-0.0005,0.0005,0.001,0.0049,0.0038,0.0041,0.0042,0.0044,0.0116,0.0116,0,0,0,0,0,0,-0.0149,-0.0137,-0.0118,-0.0115,-0.0125,-0.0093,-0.0088,-0.0088,-0.0042,-0.0035,-0.0066,-0.0064,0.0,0.0007,0.0013,0.0034,0.0041,0.0044,0.0045,0.0115,0.0116,0.0116,0,0,0,0,0,0,-0.015,-0.0148,-0.012,-0.0126,-0.0121,-0.0093,-0.0092,-0.0087,-0.0076,-0.0038,-0.0031,-0.0061,0.0001,0.0009,0.0036,0.0038,0.0045,0.0048,0.0115,0.0115,0.0116,0.0075,0,0,0,0,0,0,-0.0151,-0.0148,-0.0153,-0.0127,-0.0121,-0.0112,-0.0092,-0.0086,-0.0075,-0.0073,-0.0032,-0.0024,0.0001,0.0032,0.0039,0.0042,0.005,0.0115,0.0115,0.0116,0.0076,0.0074,0.0072,0,0,0,0,0,-0.0152,-0.0161,-0.0154,-0.0152,-0.0128,-0.0112,-0.0107,-0.0085,-0.0076,-0.0074,-0.0044,-0.0026,0.004,0.0034,0.0042,0.0046,0.0115,0.0115,0.0116,0.0077,0.0074,0.0072,0,0,0,0,0,0,-0.0175,-0.0157,-0.0149,-0.0153,-0.0137,-0.0107,-0.0106,-0.0089,-0.0064,-0.0062,-0.0024,-0.0014,0.0009,0.0034,0.0027,0.0069,0.0081,0.0083,0.0048,0.0046,0.0044,0.0036,0.0052,0,0,0,0,0,-0.0183,-0.0186,-0.0163,-0.0167,-0.0161,-0.0134,-0.0126,-0.011,-0.0085,-0.0074,-0.0045,-0.0012,0.0018,0.0036,0.0062,0.0086,0.0114,0.0095,0.0093,0.0091,0.009,0.0136,0.0138,0.0118,0.0118,0.0118,0,0,-0.0193,-0.0185,-0.0186,-0.0172,-0.0158,-0.0153,-0.0128,-0.0119,-0.011,-0.0069,-0.005,-0.0022,0.0021,0.0046,0.0059,0.0068,0.0111,0.0092,0.0089,0.009,0.0137,0.0139,0.0141,0.0118,0.0118,0.0118,0,0,-0.0217,-0.0208,-0.0218,-0.0207,-0.0191,-0.0171,-0.017,-0.0143,-0.0126,-0.0105,-0.0072,-0.0041,-0.0001,0.0034,0.0057,0.0062,0.0094,0.0068,0.0056,0.0101,0.0103,0.0105,0.0136,0.0141,0.0072,0.0072,0.0072,0,-0.0231,-0.0239,-0.0218,-0.0223,-0.0216,-0.0182,-0.0186,-0.0163,-0.0129,-0.0113,-0.0106,-0.0036,-0.0004,0.004,0.0041,0.0057,0.0082,0.006,0.0097,0.01,0.0103,0.0135,0.0141,0.007,0.007,0.007,0.007,0,-0.0255,-0.0264,-0.0269,-0.0262,-0.025,-0.0249,-0.0216,-0.02,-0.0177,-0.0148,-0.0108,-0.0061,-0.0017,-0.0002,0.002,0.0059,0.0068,0.0084,0.01,0.0102,0.0136,0.0143,0.0067,0.0068,0.0068,0.0069,0,0,-0.0286,-0.0288,-0.0292,-0.0299,-0.0272,-0.0268,-0.0247,-0.0217,-0.0203,-0.0162,-0.0136,-0.0081,-0.0052,-0.0024,0.0013,0.0053,0.0091,0.0072,0.0075,0.0096,0.0179,0.0166,0.0174,0.0111,0.0112,0.0113,0.0191,0,-0.0314,-0.034,-0.0325,-0.0343,-0.035,-0.0312,-0.0296,-0.0261,-0.0223,-0.0188,-0.0125,-0.009,-0.006,-0.0042,0.0005,0.0069,0.0109,0.0067,0.0179,0.0182,0.0166,0.0182,0.0117,0.0197,0.0198,0.02,0.0201,0,-0.0343,-0.0357,-0.0384,-0.0387,-0.0386,-0.0387,-0.0355,-0.0337,-0.0269,-0.0237,-0.018,-0.013,-0.0061,-0.0041,0.0077,0.0047,0.0106,0.0156,0.0161,0.017,0.0184,0.0198,0.0214,0.0213,0.0212,0.0211,0.021,0,-0.0378,-0.0399,-0.0426,-0.0426,-0.0417,-0.042,-0.0411,-0.0355,-0.034,-0.027,-0.0246,-0.0152,-0.0106,-0.0017,0.0089,0.0083,0.0216,0.0224,0.0272,0.0272,0.0277,0.0274,0.0306,0.0306,0.0306,0.0305,0.0305,0,-0.0407,-0.0434,-0.0452,-0.0466,-0.0497,-0.0468,-0.0478,-0.0447,-0.0398,-0.0385,-0.0282,-0.024,-0.0098,-0.0003,0.0086,0.0202,0.0219,0.0273,0.0295,0.0256,0.0251,0.0282,0.0278,0.0308,0.0308,0.0307,0.0307,0,-0.0439,-0.045,-0.0491,-0.0507,-0.0518,-0.0541,-0.0543,-0.0541,-0.0484,-0.0462,-0.0444,-0.0299,-0.0166,-0.0026,0.0132,0.0195,0.0306,0.0342,0.0286,0.0303,0.0331,0.0324,0.04,0.0401,0.0401,0.0401,0.0401,0,-0.0457,-0.048,-0.0535,-0.0569,-0.0584,-0.0613,-0.0629,-0.0594,-0.0589,-0.0502,-0.0492,-0.0346,-0.0245,-0.0015,0.013,0.031,0.0331,0.0377,0.0358,0.0329,0.0343,0.0335,0.0328,0.0402,0.0402,0.0402,0.0402,0,-0.0489,-0.0515,-0.055,-0.0621,-0.0663,-0.0704,-0.0724,-0.0725,-0.068,-0.0636,-0.0522,-0.0381,-0.0216,-0.002,0.0129,0.0253,0.034,0.038,0.038,0.0363,0.0331,0.0343,0.0336,0.0403,0.0403,0.0402,0.0402,0,-0.0516,-0.0555,-0.0606,-0.0663,-0.0725,-0.077,-0.0777,-0.0755,-0.0734,-0.0637,-0.0602,-0.0401,-0.0276,-0.0049,0.0081,0.0212,0.0239,0.0255,0.0262,0.0263,0.02,0.0138,0.0172,0,0,0,0,0,-0.0535,-0.0579,-0.0641,-0.0708,-0.077,-0.08,-0.0826,-0.0817,-0.0781,-0.0716,-0.0656,-0.0502,-0.0256,-0.012,0.0009,0.0071,0.0246,0.0222,0.0264,0.0407,0.0406,0.0354,0,0,0,0,0,0,-0.055,-0.0613,-0.0643,-0.0727,-0.0776,-0.084,-0.0857,-0.0836,-0.0781,-0.072,-0.0571,-0.0494,-0.0236,-0.0329,0.0007,0.0051,0.0087,0.0349,0.035,0.0408,0.0407,0.0406,0.0352,0,0,0,0,0]}]]